www.pogodaiklimat.ru

Погода и климат >> Архив погоды >> Швейцария >> Эгль


ПОГОДА в Эгле

  • Прогноз погоды в Эгле
  • Монитор погоды в Эгле

АРХИВ ПОГОДЫ в Эгле

Время (UTC), дата Ветер
(напр.,м/с)
 
Видим.   Явления Облачность Т
(С)
Тd
(С)
f
(%)
Тe
(С)
Тes
(С)
Комфортность P
(гПа)
Po
(гПа)
Тmin
(С)
Tmax
(С)
R
(мм)
R24
(мм)
S
(см)
10 9.09 С 2
{4}
н/о н/о +14.6 +8.1 65 +15 +15 1017.0 972.2
11 9.09 С 2
{4}
н/о н/о +16.4 +8.4 59 +17 +17 1015.5 971.1
12 9.09 С 5
{8}
35 км 8/8 1410 м
[]
+16.9 +8.6 58 +16 +18 1014.9 970.6
13 9.09 С 5
{8}
н/о н/о +17.1 +7.3 52 +17 +17 1014.5 970.2
14 9.09 С 5
{7}
н/о н/о +17.1 +7.1 52 +17 +17 1014.0 969.8
15 9.09 С 3
{8}
35 км 9/9 1410 м
[]
+16.7 +6.5 51 +17 +17 1013.8 969.5
16 9.09 СЗ 2
{7}
н/о н/о +16.2 +5.5 49 +16 +16 1013.8 969.4
17 9.09 З 1
{4}
н/о н/о +15.8 +6.9 55 +17 +17 1013.9 969.5
18 9.09 В 1
{8}
35 км 9/0 2000 м
[]
+13.8 +9.0 73 +14 +14 1014.6 969.8 +17.5
19 9.09 Ю 2
{3}
н/о н/о +12.8 +9.5 80 +12 +12 1014.7 969.8
20 9.09 Ю 1
{3}
н/о н/о +11.6 +9.2 85 +12 +12 1014.9 969.8
21 9.09 Ю 1
{3}
н/о н/о +10.9 +9.7 92 +11 +11 1015.5 970.2
22 9.09 ЮВ 2
{3}
н/о н/о +11.1 +9.5 90 +10 +10 1015.6 970.3
23 9.09 Ю 1
{2}
н/о н/о +10.5 +9.6 94 +11 +11 1015.8 970.4
00 10.09 ЮВ 1
{3}
н/о н/о +10.5 +9.8 95 +11 +11 1015.7 970.3
01 10.09 В 1
{2}
н/о н/о +10.1 +9.4 95 +9 +9 1015.5 970.1
02 10.09 ЮВ 2
{3}
н/о н/о +9.9 +9.1 95 +9 +9 1014.8 969.4
03 10.09 Ю 1
{3}
25 км 4/0
[]
+9.8 +8.4 91 +9 +9 1014.0 968.6
04 10.09 СЗ 2
{3}
н/о н/о +11.7 +7.4 75 +11 +11 1014.0 968.9
05 10.09 Ю 2
{3}
н/о н/о +9.6 +8.1 90 +8 +8 1014.8 969.3
06 10.09 ЮЗ 1
{3}
35 км 8/0
[]
+10.3 +8.0 86 +11 +11 1015.1 969.7 +8.8
07 10.09 Ю 1
{2}
н/о н/о +12.5 +8.9 79 +13 +13 1014.9 969.9
08 10.09 Ю 1
{2}
н/о н/о +14.3 +8.7 69 +15 +15 1015.1 970.4
09 10.09 С 3
{5}
30 км 8/0
[]
+15.9 +10.1 68 +16 +20 1015.3 970.8
10 10.09
{5}
н/о н/о +17.0 +10.5 66 1015.2 970.9
11 10.09 СЗ 2
{4}
н/о н/о +17.3 +9.2 59 +18 +18 1014.9 970.7
12 10.09 СЗ 2
{5}
35 км 10/0
[]
+17.8 +8.9 56 +18 +24 1015.1 970.9
13 10.09 СЗ 2
{4}
н/о н/о +17.4 +9.4 59 +18 +18 1015.1 970.9
14 10.09 штиль 0
{3}
н/о н/о +18.3 +10.1 59 +19 +19 1014.8 970.7
15 10.09 штиль 0
{4}
н/о н/о +18.8 +9.7 55 +19 +20 1014.9 970.9
16 10.09 ЮЗ 1
{2}
н/о н/о +19.0 +10.5 58 +21 +21 комфорт 1015.2 971.2
17 10.09 СЗ 1
{2}
н/о н/о +17.9 +11.6 67 +19 +19 1015.5 971.3
18 10.09 штиль 0
{4}
30 км 5/0 2000 м
[]
+16.1 +11.9 76 +16 +16 1016.5 972.0 +19.3
19 10.09 Ю 2
{3}
н/о н/о +13.4 +11.7 89 +13 +13 1017.8 972.8
20 10.09 Ю 3
{4}
н/о н/о +14.8 +11.5 81 +14 +14 1018.1 973.3
21 10.09 Ю 2
{4}
н/о н/о +14.1 +11.6 85 +14 +14 1018.8 973.9
22 10.09 Ю 2
{4}
н/о н/о +14.3 +11.5 83 +14 +14 1018.8 973.9
23 10.09 С 1
{4}
н/о н/о +14.7 +10.5 76 +15 +15 1018.8 974.0
00 11.09 СЗ 1
{4}
н/о н/о +14.5 +11.0 80 +16 +16 1019.0 974.1
01 11.09 З 1
{2}
н/о н/о +14.4 +11.1 81 +15 +15 1019.8 974.9
02 11.09 Ю 2
{4}
н/о н/о +13.6 +11.0 84 +13 +13 1020.6 975.5
03 11.09 С 2
{4}
20 км ясно +12.2 +10.3 88 +12 +12 1020.7 975.4
04 11.09 В 1
{2}
н/о н/о +10.6 +9.8 95 +11 +11 1022.0 976.4
05 11.09 Ю 1
{2}
н/о н/о +10.6 +9.4 92 +11 +11 1023.0 977.3
06 11.09 штиль 0
{4}
30 км 3/0
[]
+9.9 +9.0 94 +9 +9 1023.6 977.8 +9.3
07 11.09 В 1
{2}
н/о н/о +11.3 +10.3 94 +12 +12 1024.3 978.7
08 11.09 В 1
{2}
н/о н/о +15.8 +9.5 66 +17 +17 1023.8 978.9
09 11.09 С 2
{4}
30 км 6/0
[]
+18.4 +11.3 63 +20 +25 1023.3 978.9
10 11.09 С 5
{7}
н/о н/о +17.8 +12.0 69 +17 +17 1024.1 979.5
11 11.09 СЗ 2
{6}
н/о н/о +17.9 +11.6 67 +18 +18 1024.3 979.7
12 11.09 С 3
{7}
22 км 9/0
[]
+18.4 +11.5 64 +19 +25 1024.3 979.8
13 11.09 СЗ 2
{5}
н/о н/о +19.1 +12.1 64 +21 +21 комфорт 1024.1 979.7
14 11.09 СЗ 3
{6}
н/о н/о +18.7 +11.6 63 +20 +20 1024.3 979.9
15 11.09 С 2
{6}
30 км 5/0
[]
+19.2 +10.8 58 +21 +24 комфорт 1024.4 980.0
16 11.09 С 2
{4}
н/о н/о +19.5 +12.1 62 +21 +21 комфорт 1024.7 980.4
17 11.09 З 2
{4}
н/о н/о +18.0 +12.2 69 +19 +19 1025.4 980.8
18 11.09 В 1
{6}
20 км 4/4 1500 м
[]
+15.7 +12.8 83 +17 +17 1026.5 981.5 +20.0
19 11.09 ЮВ 1
{2}
н/о н/о +14.4 +12.9 91 +15 +15 1027.5 982.2
20 11.09 Ю 1
{2}
н/о н/о +15.1 +12.8 86 +16 +16 1027.6 982.5
21 11.09 ЮВ 2
{2}
н/о н/о +13.6 +12.5 93 +13 +13 1028.5 983.1
22 11.09 Ю 2
{2}
н/о н/о +12.8 +11.8 94 +12 +12 1028.7 983.1
23 11.09 штиль 0
{2}
н/о н/о +12.3 +11.5 95 +12 +12 1029.0 983.3
00 12.09 ЮВ 1
{2}
н/о н/о +11.1 +10.4 95 +11 +11 1029.7 983.8
01 12.09 Ю 1
{2}
н/о н/о +10.7 +10.0 95 +10 +10 1030.0 984.0
02 12.09 ЮВ 2
{2}
н/о н/о +10.5 +9.8 95 +9 +9 1030.4 984.4
03 12.09 Ю 2
{3}
20 км 1/0
[]
+11.1 +10.0 93 +10 +10 1030.3 984.4
04 12.09 Ю 2
{4}
н/о н/о +10.8 +9.7 93 +10 +10 1030.5 984.5
05 12.09 ЮВ 1
{2}
н/о н/о +11.1 +9.7 91 +11 +11 1030.9 985.0
06 12.09 Ю 3
{4}
35 км ясно +12.3 +9.8 85 +11 +11 1031.0 985.3 +9.8
07 12.09 Ю 3
{7}
н/о н/о +15.6 +10.5 72 +15 +15 1030.6 985.4
08 12.09 Ю 3
{8}
н/о н/о +17.8 +11.1 65 +18 +18 1030.5 985.7
09 12.09 Ю 1
{8}
35 км ясно +18.9 +10.4 58 +21 +30 комфорт 1030.7 986.0
10 12.09 С 3
{5}
н/о н/о +21.0 +12.9 60 +24 +24 комфорт 1030.5 986.2
11 12.09 С 4
{8}
н/о н/о +20.4 +12.1 59 +23 +23 комфорт 1030.4 986.0
12 12.09 С 4
{8}
30 км ясно +21.2 +12.4 57 +23 +32 комфорт 1030.0 985.7
13 12.09 СЗ 4
{6}
н/о н/о +21.7 +13.1 58 +24 +24 комфорт 1029.7 985.5
14 12.09 СЗ 3
{6}
н/о н/о +22.4 +13.4 57 +25 +25 комфорт 1029.5 985.4
15 12.09 З 3
{6}
35 км ясно +23.8 +12.6 49 +26 +30 жарко 1028.9 985.1
16 12.09 ЮЗ 2
{4}
н/о н/о +22.9 +14.9 61 +27 +27 душно 1028.8 984.8
17 12.09 З 1
{2}
н/о н/о +20.3 +12.9 62 +23 +23 комфорт 1029.4 985.0
18 12.09 С 1
{6}
30 км ясно +17.8 +13.2 74 +19 +19 1030.2 985.4 +23.8
19 12.09 Ю 1
{2}
н/о н/о +15.3 +13.6 90 +16 +16 1031.0 985.7
20 12.09 В 1
{2}
н/о н/о +14.8 +13.2 90 +16 +16 1031.3 985.9
21 12.09 штиль 0
{2}
н/о н/о +13.6 +12.2 91 +13 +13 1031.8 986.2
22 12.09 штиль 0
{1}
н/о н/о +13.8 +12.4 91 +13 +13 1031.7 986.2
23 12.09 штиль 0
{2}
н/о н/о +13.3 +11.8 91 +13 +13 1031.8 986.2
00 13.09 В 1
{2}
н/о н/о +12.8 +11.7 93 +13 +13 1031.9 986.2
01 13.09 Ю 2
{3}
н/о н/о +12.5 +11.5 94 +11 +11 1031.7 986.0
02 13.09 З 1
{2}
н/о н/о +11.6 +10.9 95 +12 +12 1031.9 986.0
03 13.09 Ю 1
{3}
25 км ясно +11.4 +10.7 95 +12 +12 1032.2 986.3
04 13.09 ЮВ 1
{1}
н/о н/о +10.9 +10.1 95 +11 +11 1032.6 986.6
05 13.09 ЮЗ 1
{2}
н/о н/о +10.4 +9.5 94 +10 +10 1032.9 986.8
06 13.09 Ю 1
{3}
40 км ясно +11.1 +10.2 94 +12 +12 1032.9 986.9 +10.3
07 13.09 Ю 1
{2}
н/о н/о +15.4 +12.5 83 +17 +17 1032.0 986.7
08 13.09 С 1
{4}
н/о н/о +18.1 +12.8 71 +19 +19 1031.8 986.9
09 13.09 СЗ 3
{5}
40 км 3/0
[]
+19.8 +13.0 65 +22 +27 комфорт 1031.5 986.9
10 13.09 С 1
{3}
н/о н/о +21.1 +12.8 59 +23 +23 комфорт 1030.5 986.2
11 13.09 С 2
{5}
н/о н/о +22.7 +13.9 58 +26 +26 жарко 1029.6 985.6
12 13.09 С 4
{5}
40 км 1/0
[]
+22.8 +14.5 59 +26 +34 жарко 1029.2 985.2
13 13.09 СЗ 2
{5}
н/о н/о +23.3 +13.8 55 +27 +27 душно 1028.6 984.7
14 13.09 СЗ 3
{6}
н/о н/о +23.3 +13.4 54 +27 +27 душно 1028.2 984.3
15 13.09 С 2
{6}
40 км 3/0
[]
+24.1 +14.4 55 +27 +31 жарко 1027.6 983.9
16 13.09
{3}
н/о н/о +23.9 +14.5 56 1027.5 983.7
17 13.09 З 1
{2}
н/о н/о +21.1 +15.0 68 +24 +24 комфорт 1027.8 983.6
18 13.09 З 1
{6}
45 км 1/0
[]
+17.7 +16.0 90 +19 +19 1028.3 983.5 +24.2
19 13.09 Ю 1
{2}
н/о н/о +16.0 +14.8 93 +17 +17 1029.3 984.2
20 13.09 СВ 1
{2}
н/о н/о +15.6 +13.9 90 +16 +16 1029.6 984.4
21 13.09 Ю 2
{2}
н/о н/о +15.3 +13.0 86 +15 +15 1029.8 984.6
22 13.09 Ю 2
{2}
н/о н/о +15.0 +13.2 89 +15 +15 1029.7 984.4
23 13.09 ЮВ 2
{2}
н/о н/о +14.3 +13.0 92 +14 +14 1029.7 984.3
00 14.09 В 1
{2}
н/о н/о +15.1 +13.4 90 +16 +16 1029.5 984.3
01 14.09 ЮВ 1
{4}
н/о н/о +13.0 +12.1 94 +13 +13 1029.4 983.8
02 14.09 В 1
{2}
н/о н/о +13.3 +12.2 93 +14 +14 1029.2 983.7
03 14.09 С 1
{4}
25 км ясно +12.0 +11.3 95 +13 +13 1029.3 983.6
04 14.09 В 1
{2}
н/о н/о +12.0 +11.5 97 +13 +13 1029.3 983.6
05 14.09 Ю 1
{2}
н/о н/о +11.9 +11.3 96 +12 +12 1029.7 983.9
06 14.09 ЮВ 1
{4}
30 км 1/0
[]
+11.6 +10.7 94 +12 +12 1030.4 984.6 +10.9
07 14.09 штиль 0
{2}
н/о н/о +15.7 +13.6 87 +15 +15 1030.0 984.8
08 14.09 ЮЗ 1
{2}
н/о н/о +19.0 +14.4 75 +22 +22 комфорт 1029.3 984.7
09 14.09 С 2
{4}
40 км 1/0
[]
+20.2 +14.3 69 +23 +30 комфорт 1029.0 984.6
10 14.09 С 4
{6}
н/о н/о +21.0 +14.5 66 +24 +24 комфорт 1028.7 984.4
11 14.09 С 3
{6}
н/о н/о +22.8 +14.6 60 +26 +26 жарко 1027.4 983.5
12 14.09 С 4
{6}
40 км 8/0 2000 м
[]
+23.0 +15.1 61 +27 +32 душно 1026.8 982.9
13 14.09 СЗ 3
{6}
н/о н/о +23.3 +15.0 60 +27 +27 душно 1026.0 982.2
14 14.09 СЗ 3
{5}
н/о н/о +23.2 +15.5 62 +27 +27 душно 1025.6 981.8
15 14.09 СЗ 2
{6}
40 км 6/0 2000 м
[]
+24.1 +15.7 59 +27 +30 жарко 1024.9 981.3
16 14.09 З 2
{3}
н/о н/о +23.3 +14.6 58 +27 +27 душно 1025.0 981.2
17 14.09 СЗ 1
{2}
н/о н/о +21.9 +16.2 70 +26 +26 душно 1025.4 981.4
18 14.09 штиль 0
{6}
35 км 6/0 2000 м
[]
+18.8 +16.6 87 +20 +20 1026.3 981.8 +24.3
19 14.09 Ю 1
{2}
н/о н/о +17.2 +16.1 93 +19 +19 1026.9 982.1
20 14.09 Ю 2
{3}
н/о н/о +16.6 +15.2 91 +17 +17 1027.0 982.1
21 14.09 ЮВ 1
{3}
н/о н/о +16.3 +15.1 93 +18 +18 1026.8 981.9
22 14.09 штиль 0
{2}
н/о н/о +14.9 +14.3 96 +15 +15 1026.8 981.7
23 14.09 С 1
{2}
н/о н/о +14.6 +14.0 96 +16 +16 1026.8 981.6
00 15.09 Ю 1
{3}
н/о н/о +14.2 +13.6 96 +15 +15 1027.2 981.9
01 15.09 Ю 3
{3}
н/о н/о +15.5 +14.5 94 +15 +15 1026.6 981.6
02 15.09 ЮЗ 1
{3}
н/о н/о +14.6 +13.8 95 +16 +16 1026.4 981.2
03 15.09 ЮЗ 1
{3}
25 км 4/0
[]
+13.5 +13.0 97 +14 +14 1026.8 981.4
04 15.09 Ю 2
{2}
н/о н/о +13.2 +12.8 97 +13 +13 1027.0 981.6
05 15.09 Ю 2
{3}
н/о н/о +13.9 +13.2 96 +13 +13 1026.8 981.5
06 15.09 Ю 2
{3}
40 км 3/0
[]
+14.4 +13.3 93 +14 +14 1026.7 981.5 +12.7
07 15.09 З 1
{2}
н/о н/о +16.5 +14.5 88 +18 +18 1026.3 981.4
08 15.09 С 1
{2}
н/о н/о +18.9 +14.8 77 +22 +22 комфорт 1026.0 981.5
09 15.09 С 3
{4}
40 км 4/0
[]
+20.8 +14.8 69 +24 +29 комфорт 1025.6 981.4
10 15.09
{5}
н/о н/о +21.8 +15.6 68 1025.2 981.2
11 15.09 СЗ 2
{4}
н/о н/о +23.5 +15.8 62 +27 +27 душно 1024.4 980.7
12 15.09 С 2
{5}
40 км 1/0 2000 м
[]
+23.7 +16.0 62 +27 +38 жарко 1023.6 980.0
13 15.09 СЗ 2
{4}
н/о н/о +25.2 +16.7 59 +29 +29 душно 1022.7 979.3
14 15.09 С 2
{4}
н/о н/о +25.3 +16.3 57 +29 +29 душно 1021.8 978.5
15 15.09 С 2
{4}
40 км 1/0 2000 м
[]
+25.1 +16.0 57 +28 +33 жарко 1021.2 977.9
16 15.09 СЗ 2
{2}
н/о н/о +24.3 +17.3 65 +28 +28 душно 1020.9 977.5
17 15.09 З 1
{2}
н/о н/о +21.8 +17.4 76 +26 +26 душно 1021.0 977.2
18 15.09 ЮВ 1
{4}
40 км 1/0 2000 м
[]
+19.4 +16.6 84 +23 +23 комфорт 1021.4 977.2 +26.0
19 15.09 Ю 2
{3}
н/о н/о +18.1 +16.0 88 +19 +19 1021.9 977.5
20 15.09 ЮВ 1
{3}
н/о н/о +17.5 +15.2 86 +19 +19 1022.2 977.7
21 15.09 Ю 1
{3}
н/о н/о +16.7 +14.1 85 +18 +18 1022.5 977.8
22 15.09 Ю 1
{2}
н/о н/о +16.5 +14.5 88 +18 +18 1022.5 977.8
23 15.09 Ю 1
{2}
н/о н/о +15.1 +13.7 91 +16 +16 1022.7 977.8
00 16.09 Ю 1
{3}
н/о н/о +14.6 +13.5 93 +15 +15 1022.8 977.8
01 16.09 Ю 1
{2}
н/о н/о +15.2 +12.8 86 +16 +16 1022.5 977.6
02 16.09 Ю 3
{4}
н/о н/о +16.1 +13.1 82 +16 +16 1022.0 977.3
03 16.09 Ю 3
{4}
20 км ясно +15.6 +13.1 85 +15 +15 1021.9 977.1
04 16.09 Ю 2
{5}
н/о н/о +17.7 +12.6 72 +18 +18 1021.2 976.7
05 16.09 С 1
{4}
н/о н/о +16.5 +12.3 76 +17 +17 1021.5 976.8
06 16.09 ЮЗ 3
{5}
40 км 3/0
[]
+15.4 +12.8 84 +15 +15 1021.5 976.7 +13.9
07 16.09 штиль 0
{3}
н/о н/о +18.0 +13.6 75 +18 +18 1021.4 977.0
08 16.09 ЮВ 4
{5}
н/о н/о +21.0 +13.4 62 +24 +24 комфорт 1020.8 976.9
09 16.09 ЮЗ 1
{6}
40 км ясно +22.3 +13.8 59 +25 +33 комфорт 1020.5 976.8

 

Местоположение метеостанции Эгль (Швейцария): широта 46.33 долгота 6.92 высота над уровнем моря 383 м.

В архиве по умолчанию представлена погода в Эгле за последнюю неделю. Архивные данные за месяц целиком и за предыдущие месяцы, начиная с января 2011 года, Вы можете получить, выбрав интересующий диапазон дат из раскрывающегося списка и нажав кнопку "Ввод!".


*Определитесь, кто Вы:
робот инопланетянин человек

Внимание! Время в таблицах - всемирное. Для получения местного времени необходимо прибавить поправку, которая равна 1 ч.

Смотрите также архив погоды в соседних городах и на ближайших метеорологических станциях:

Погода в Ле-Бувре (Швейцария) (9 км)
Погода в Монтрё-Кларане (Швейцария) (13 км)
Погода в Коль де Моссе (Швейцария) (15 км)
Погода в Эвьоне (Швейцария) (19 км)
Погода на Ле-Дьяблере (Швейцария) (22 км)
Погода в Шато-Д`о (Швейцария) (24 км)
Погода в Сальване (Швейцария) (25 км)
Погода на Молезоне (Швейцария) (26 км)
Погода в Ороне (Швейцария) (27 км)
Погода в Пюли (Швейцария) (29 км)

Пояснения к столбцам:

Ветер - указаны скорость ветра в м/с - средняя за 10 мин, порывы в срок и между сроками (в фигурных скобках) и направление, откуда дует ветер: С - северный, СВ - северо-восточный, В - восточный, ЮВ - юго-восточный, Ю - южный, ЮЗ - юго-западный, З - западный, СЗ - северо-западный.
Видимость - горизонтальная дальность видимости в метрах или километрах. При видимости от 1 до 10 км при отсутствии осадков обычно наблюдается дымка, при ухудшении видимости до 1 км и менее - туман. В сухую погоду видимость может ухудшаться дымом, пылью или мглою.
Явления - указаны атмосферные явления, наблюдавшиеся в срок или в последний час перед сроком; фигурными скобками обозначены явления, наблюдавшиеся между сроками (за 1-3 часа до срока); квадратными скобками обозначены град или гололедные отложения с указанием их диаметра в мм.
Облачность - указаны через наклонную черту общая и нижняя облачность в баллах и высота нижней границы облаков в метрах; квадратными скобками обозначены формы облаков: Ci - перистые, Cs - перисто-слоистые, Cc - перисто-кучевые, Ac - высококучевые, As - высокослоистые, Sc - слоисто-кучевые, Ns - слоисто-дождевые, Cu - кучевые, Cb - кучево-дождевые. Подробнее классификацию облаков см. в Атласе облаков (PDF).
T - Температура воздуха - температура, измеренная на высоте 2 м над землей.
Td - Температура точки росы - температура, при понижении до которой содержащийся в воздухе водяной пар достигнет насыщения.
f - Относительная влажность воздуха - влажноcть воздуха, измеренная на высоте 2 м над землей.
Te - Эффективная температура - температура, которую ощущает одетый по сезону человек в тени. Характеристика душности погоды. При расчете учитывается влияние влажности воздуха и скорости ветра на теплоощущения человека.
Tes - Эффективная температура на солнце - температура, которую ощущает человек, с поправкой на солнечный нагрев. Характеристика знойности погоды. Зависит от высоты солнца над горизонтом, облачности и скорости ветра. Ночью, в пасмурную погоду, а также при ветре 12 м/с и более поправка равна нулю.
P - Атмосферное давление - приведенное к уровню моря атмосферное давление.
Po - Атмосферное давление - измеренное на уровне метеостанции атмосферное давление.
Tmin - Минимальная температура - минимум температуры воздуха на высоте 2 м над землей.
Tmax - Максимальная температура - максимум температуры воздуха на высоте 2 м над землей.
R - Количество осадков - Количество выпавших осадков за период времени, мм. При наведении курсора мыши на число - период времени, за который выпало указанное количество осадков.
R24 - Количество осадков - Количество выпавших осадков за 24 часа, мм.
S - Снежный покров - Высота снежного покрова, см. При наведении курсора мыши на число - состояние снежного покрова и степень покрытия местности в баллах.